East Swanzey, NH

4:57 AM EDT on July 31, 2016 (GMT -0400)
Dillant-Hopkins

Weather History for KEEN - December, 2012

Change the Weather History Date:

Saturday, December 29, 2012

  Actual Average Record
Temperature  
Mean Temperature 22 °F -  
Max Temperature 28 °F 34 °F 65 °F (1984)
Min Temperature 15 °F 14 °F -25 °F (1933)
Degree Days  
Heating Degree Days 44    
Moisture  
Dew Point 19 °F    
Average Humidity 87    
Maximum Humidity 93    
Minimum Humidity 74    
Precipitation  
Precipitation 0.01 in - - ()
Sea Level Pressure  
Sea Level Pressure 29.80 in    
Wind  
Wind Speed 2 mph (North)    
Max Wind Speed 13 mph    
Max Gust Speed -    
Visibility 6 miles    
Events      
Averages and records for this station are not official NWS values.
T = Trace of Precipitation, MM = Missing Value Source: NWS Daily Summary

Daily Weather History Graph

Daily Weather History Graph

Search for Another Location

Airport or City:

Trip Planner

Search our weather history database for the weather conditions in past years. The results will help you decide how hot, cold, wet, or windy it might be!

Date:

Astronomy

Dec. 29, 2012 Rise Set
Actual Time 7:19 AM EST 4:23 PM EST
Civil Twilight 6:47 AM EST 4:55 PM EST
Nautical Twilight 6:11 AM EST 5:31 PM EST
Astronomical Twilight 5:37 AM EST 6:05 PM EST
Moon 5:56 PM EST (12/29) 7:49 AM EST (12/29)
Length of Visible Light 10h 07m
Length of Day
9h 03m
Full, 98% of the Moon is Illuminated
Dec 29
Full
Jan 4
Last Quarter
Jan 11
New
Jan 18
First Quarter
Jan 26
Full

Hourly Weather History & Observations

Time (EST) Temp. Windchill Dew Point Humidity Pressure Visibility Wind Dir Wind Speed Gust Speed Precip Events Conditions
12:15 AM 19.4 °F - 17.6 °F 93% 30.00 in 3.0 mi Calm Calm - N/A   Clear
12:35 AM 17.6 °F - 15.8 °F 93% 30.00 in 0.5 mi Calm Calm - N/A   Unknown
12:55 AM 17.6 °F - 15.8 °F 93% 30.00 in 7.0 mi Calm Calm - N/A   Clear
1:15 AM 17.6 °F - 14.0 °F 86% 30.00 in 9.0 mi Calm Calm - N/A   Clear
1:35 AM 17.6 °F - 12.2 °F 79% 30.00 in 1.5 mi Calm Calm - N/A   Clear
1:55 AM 15.8 °F - 12.2 °F 86% 30.01 in 1.5 mi Calm Calm - N/A   Clear
2:15 AM 15.8 °F - 12.2 °F 86% 30.00 in 0.8 mi Calm Calm - N/A   Unknown
2:55 AM 15.8 °F - 12.2 °F 86% 30.00 in 10.0 mi Calm Calm - N/A   Partly Cloudy
3:15 AM 15.8 °F 10.2 °F 10.4 °F 79% 30.00 in 10.0 mi SSW 3.5 mph - N/A   Partly Cloudy
3:35 AM 15.8 °F - 12.2 °F 86% 30.00 in 10.0 mi Calm Calm - N/A   Partly Cloudy
3:55 AM 15.8 °F - 12.2 °F 86% 30.00 in 10.0 mi Calm Calm - N/A   Scattered Clouds
4:15 AM 15.8 °F - 12.2 °F 86% 29.99 in 10.0 mi Calm Calm - N/A   Mostly Cloudy
4:35 AM 15.8 °F - 12.2 °F 86% 29.99 in 9.0 mi Calm Calm - N/A   Overcast
4:55 AM 15.8 °F - 14.0 °F 93% 29.98 in 7.0 mi Calm Calm - N/A   Mostly Cloudy
5:15 AM 15.8 °F - 12.2 °F 86% 29.98 in 9.0 mi Calm Calm - N/A   Partly Cloudy
5:35 AM 17.6 °F - 14.0 °F 86% 29.97 in 9.0 mi Calm Calm - N/A   Partly Cloudy
6:35 AM 17.6 °F 12.3 °F 14.0 °F 86% 29.96 in 8.0 mi SSW 3.5 mph - N/A   Clear
6:55 AM 17.6 °F 10.7 °F 15.8 °F 93% 29.96 in 10.0 mi SSW 4.6 mph - N/A   Clear
7:35 AM 19.4 °F - 15.8 °F 86% 29.97 in 10.0 mi Calm Calm - N/A   Clear
7:55 AM 19.4 °F - 15.8 °F 86% 29.97 in 10.0 mi Calm Calm - N/A   Partly Cloudy
8:35 AM 19.4 °F - 17.6 °F 93% 29.97 in 10.0 mi Calm Calm - N/A   Mostly Cloudy
8:55 AM 19.4 °F 14.3 °F 17.6 °F 93% 29.96 in 10.0 mi North 3.5 mph - N/A   Mostly Cloudy
9:15 AM 19.4 °F - 17.6 °F 93% 29.95 in 10.0 mi Calm Calm - N/A   Mostly Cloudy
9:35 AM 21.2 °F - 17.6 °F 86% 29.94 in 10.0 mi Calm Calm - N/A   Overcast
9:55 AM 21.2 °F 16.4 °F 19.4 °F 93% 29.92 in 10.0 mi North 3.5 mph - N/A   Scattered Clouds
10:15 AM 21.2 °F 16.4 °F 19.4 °F 93% 29.90 in 10.0 mi North 3.5 mph - N/A   Mostly Cloudy
10:35 AM 21.2 °F - 19.4 °F 93% 29.90 in 10.0 mi Calm Calm - N/A   Mostly Cloudy
10:55 AM 23.0 °F 18.4 °F 19.4 °F 86% 29.89 in 10.0 mi South 3.5 mph - N/A   Mostly Cloudy
11:35 AM 24.8 °F - 21.2 °F 86% 29.87 in 10.0 mi Calm Calm - N/A   Overcast
11:55 AM 24.8 °F - 21.2 °F 86% 29.85 in 10.0 mi Calm Calm - N/A   Overcast
12:15 PM 26.6 °F - 21.2 °F 80% 29.85 in 10.0 mi Calm Calm - N/A   Overcast
12:35 PM 26.6 °F - 21.2 °F 80% 29.82 in 10.0 mi Calm Calm - N/A   Overcast
12:55 PM 26.6 °F - 19.4 °F 74% 29.81 in 10.0 mi Calm Calm - N/A   Overcast
1:15 PM 26.6 °F - 21.2 °F 80% 29.78 in 0.8 mi Calm Calm - N/A   Overcast
1:35 PM 26.6 °F 22.6 °F 23.0 °F 86% 29.75 in 2.0 mi North 3.5 mph - N/A   Overcast
1:55 PM 26.6 °F 22.6 °F 23.0 °F 86% 29.74 in 4.0 mi North 3.5 mph - N/A   Mostly Cloudy
2:15 PM 26.6 °F - 23.0 °F 86% 29.73 in 6.0 mi Calm Calm - N/A   Mostly Cloudy
2:35 PM 26.6 °F - 23.0 °F 86% 29.72 in 7.0 mi Calm Calm - N/A   Overcast
3:55 PM 28.4 °F 22.2 °F 24.8 °F 86% 29.69 in 3.0 mi NNE 5.8 mph - N/A   Overcast
4:15 PM 28.4 °F 21.2 °F 24.8 °F 86% 29.67 in 1.2 mi North 6.9 mph - N/A   Overcast
5:15 PM 28.4 °F 20.4 °F 24.8 °F 86% 29.63 in 6.0 mi North 8.1 mph - N/A   Overcast
6:15 PM 26.6 °F - 24.8 °F 93% 29.57 in 4.0 mi Calm Calm - N/A   Overcast
6:55 PM 26.6 °F 19.1 °F 24.8 °F 93% 29.57 in 0.8 mi NNE 6.9 mph - N/A   Overcast
7:15 PM 26.6 °F 20.0 °F 24.8 °F 93% 29.56 in 1.2 mi NNW 5.8 mph - N/A   Overcast
7:35 PM 26.6 °F 15.7 °F 24.8 °F 93% 29.53 in 0.8 mi North 12.7 mph - N/A   Overcast
7:55 PM 26.6 °F 19.1 °F 23.0 °F 86% 29.53 in 1.2 mi NNE 6.9 mph - N/A   Overcast
8:15 PM 26.6 °F 20.0 °F 23.0 °F 86% 29.52 in 1.0 mi North 5.8 mph - N/A   Overcast
8:35 PM 24.8 °F 16.9 °F 23.0 °F 93% 29.52 in 1.2 mi North 6.9 mph - N/A   Overcast
9:35 PM - - - N/A% 29.50 in 1.2 mi North 4.6 mph - N/A   Overcast
9:55 PM 24.8 °F 16.1 °F 21.2 °F 86% 29.51 in 1.0 mi North 8.1 mph - N/A   Overcast
10:15 PM 24.8 °F 17.9 °F 21.2 °F 86% 29.52 in 1.5 mi North 5.8 mph - N/A   Overcast
10:35 PM 24.8 °F 14.0 °F 21.2 °F 86% 29.52 in 4.0 mi North 11.5 mph - N/A   Overcast
10:55 PM 24.8 °F 14.6 °F 21.2 °F 86% 29.52 in 4.0 mi North 10.4 mph - N/A   Overcast
11:15 PM 24.8 °F 13.4 °F 21.2 °F 86% 29.51 in 4.0 mi North 12.7 mph - 0.01 in   Overcast
11:35 PM 24.8 °F 16.9 °F 21.2 °F 86% 29.52 in 5.0 mi North 6.9 mph - 0.01 in   Overcast
11:55 PM 24.8 °F 15.3 °F 21.2 °F 86% 29.51 in 5.0 mi North 9.2 mph - 0.01 in   Overcast